Flag for U.S.A. Weather past 2 weeks in Pasadena, Texas, U.S.A.

Now
93 °F

Scattered clouds.


Feels Like: 93 °F
Forecast: 74 / 98 °F
Wind: 8 mph from East

Location: Houston / Ellington

Current Time: Aug 1, 2015 at 8:05:40 PM

Latest Report: Aug 1, 2015 at 6:50 PM


Visibility: 10 mi

Pressure: 29.90 "Hg

Humidity: 32%

Dew point: 59 °F

Location of PasadenaLocation

Historic Weather in Pasadena — Graph

°F

Pasadena temperature yesterday

Maximum temperature yesterday: 95 °F (at 5:50 PM)
Minimum temperature yesterday: 82 °F (at 4:50 AM)
Average temperature yesterday: 88 °F

Past Weeks' High & Low Weather Summary

 TemperatureHumidityPressure
High97 °F (Jul 23, 2:50 PM)94% (Jul 25, 11:50 PM)30.08 "Hg (Jul 25, 11:50 PM)
Low77 °F (Jul 23, 2:50 AM)30% (Aug 1, 5:50 PM)29.87 "Hg (Jul 21, 6:50 PM)
Average87 °F68%29.98 "Hg
* Reported Jul 17 6:50 PM — Aug 1 6:50 PM, Pasadena, Weather by CustomWeather, © 2015

Note: Actual official high and low records may vary slightly from our data, if they occured in-between our weather recording intervals... More about our weather records

Advertising

Pasadena weather history for previous 24 hours

 ConditionsComfort  
Time TempWeatherWind HumidityBarometerVisibility
6:50 PM
Sat, Aug 1
93 °FScattered clouds.8 mph32%29.90 "Hg10 mi
5:50 PM95 °FScattered clouds.12 mph30%29.90 "Hg10 mi
4:50 PM93 °FScattered clouds.7 mph34%29.91 "Hg10 mi
3:50 PM93 °FPartly sunny.6 mph39%29.92 "Hg10 mi
2:50 PM91 °FPartly sunny.6 mph41%29.94 "Hg10 mi
1:50 PM91 °FPartly sunny.9 mph41%29.96 "Hg10 mi
12:50 PM91 °FPartly sunny.10 mph38%30.00 "Hg10 mi
11:50 AM91 °FScattered clouds.9 mph41%30.00 "Hg10 mi
10:50 AM90 °FScattered clouds.9 mph43%30.00 "Hg10 mi
9:50 AM86 °FScattered clouds.8 mph49%30.01 "Hg10 mi
8:50 AM82 °FScattered clouds.9 mph55%30.00 "Hg10 mi
7:50 AM79 °FScattered clouds.6 mph61%29.98 "Hg10 mi
5:50 AM79 °FPassing clouds.5 mph70%29.94 "Hg10 mi
4:50 AM81 °FClear.5 mph66%29.94 "Hg10 mi
3:50 AM81 °FClear.3 mph66%29.95 "Hg10 mi
1:50 AM84 °FPassing clouds.6 mph62%29.96 "Hg10 mi
12:50 AM84 °FPassing clouds.No wind66%29.98 "Hg10 mi
11:50 PM
Fri, Jul 31
84 °FPassing clouds.No wind55%29.99 "Hg10 mi
10:50 PM86 °FPassing clouds.No wind55%29.99 "Hg10 mi
9:50 PM88 °FPassing clouds.No wind35%29.99 "Hg10 mi
8:50 PM90 °FScattered clouds.3 mph41%29.96 "Hg10 mi
Weather by CustomWeather, © 2015

See weather overviewHow to use our weather pages